Regional Weather Roundup
Issued by NWS Sterling, VA

Home | Current Version | Previous Version | Text Only | Print | Product List | Glossary On
Versions: 1 2 3 4 5 6 7 8 9 10 11 12 13 14 15 16 17 18 19 20 21 22 23 24 25 26 27 28 29 30 31 32 33 34 35 36 37 38 39 40 41 42 43 44 45 46 47 48 49 50
000
ASUS41 KLWX 031810
RWRLWX

REGIONAL WEATHER ROUNDUP
NATIONAL WEATHER SERVICE BALTIMORE MD/WASHINGTON DC
200 PM EDT SUN MAY 03 2015

Note: "FAIR" indicates few or no clouds below 12,000 feet
with no significant weather and/or obstructions to visibility.
 TC=TEMPERATURE CELSIUS

 * =Non NWS site. Station does not report precipitation (e.g. rain,
    snow, etc.), thunder, or fog.

DCZ001-MDZ009-015-VAZ040>042-051-053>054-031900-
WASHINGTON METRO

CITY           SKY/WX    TMP DP  RH WIND       PRES   REMARKS
WASHINGTON NAT MOSUNNY   82  42  24 CALM      30.11F
DULLES         MOSUNNY   78  41  26 N5        30.12F
ANDREWS AFB    MOSUNNY   79  41  25 NW14      30.10F
FT BELVOIR     MOSUNNY   78  39  24 VRB5      30.11F
QUANTICO       PTSUNNY   71  53  52 S6        30.13S
COLLEGE PARK*  MOSUNNY   79  37  22 W8        30.11S
LEESBURG*      MOSUNNY   79  45  29 CALM      30.12F
MANASSAS*      PTSUNNY   79  43  27 W7        30.12F
GAITHERSBURG*  MOSUNNY   77  43  29 W13       30.15F

$$

MDZ006>007-011-014-031900-
BALTIMORE METRO

CITY           SKY/WX    TMP DP  RH WIND       PRES   REMARKS
BWI AIRPORT    MOSUNNY   75  40  28 W9        30.09F
MD SCIENCE CTR   N/A     79  36  21 MISG      30.09F
MARTIN STATE   MOSUNNY   73  55  53 E9        30.11F
ANNAPOLIS      PTSUNNY   66  51  58 SE9       30.10F
FORT MEADE*    MOSUNNY   79  39  24 NW9G17    30.13S

$$

MDZ012-015-019>023-031900-
MARYLAND EASTERN SHORE

CITY           SKY/WX    TMP DP  RH WIND       PRES   REMARKS
OCEAN CITY     SUNNY     63  51  65 SE8       30.12S
SALISBURY      SUNNY     79  40  24 NW8G17    30.10S
BAY BRIDGE AP*   N/A    N/A N/A N/A SW3       30.11F
CAMBRIDGE*     SUNNY     77  41  27 NW7       30.11S
EASTON*        SUNNY     81  46  30 VRB7      30.15S

$$

MDZ017>025-031900-
SOUTHERN MARYLAND

CITY           SKY/WX    TMP DP  RH WIND       PRES   REMARKS
PATUXENT RIVER MOSUNNY   76  42  29 NE6       30.12S
ST INIGOES     PTSUNNY   77  49  37 SE5       30.12S
LEONARDTOWN*   MOSUNNY   77  37  24 N6        30.13F

$$

MDZ003>005-031900-
NORTH CENTRAL MARYLAND

CITY           SKY/WX    TMP DP  RH WIND       PRES   REMARKS
FREDERICK*     MOSUNNY   81  32  17 W7        30.13F
HAGERSTOWN APT PTSUNNY   76  42  29 W9        30.11S
WESTMINSTER*   MOSUNNY   77  34  20 W13G20    30.12S

$$

MDZ501>502-031900-
WESTERN MARYLAND

CITY           SKY/WX    TMP DP  RH WIND       PRES   REMARKS
OAKLAND*       PTSUNNY   64  37  36 W8        30.19F
CUMBERLAND*    MOSUNNY   77  39  25 SW6       30.15F

$$

VAZ025>031-031900-
SHENANDOAH VALLEY

CITY           SKY/WX    TMP DP  RH WIND       PRES   REMARKS
WINCHESTER*    MOSUNNY   77  32  19 S12       30.12F
FRONT ROYAL*   MOCLDY    73  43  33 NE3       30.12F
LURAY*         MOCLDY    77  46  33 S5        30.14S
NEW MARKET*    FAIR      75  45  34 S6        30.12F
STAUNTON*      MOSUNNY   74  40  28 S7        30.17F
WAYNESBORO*    FAIR      72  39  30 N3        30.16F

$$

WVZ021-048>050-054>055-031900-
EASTERN WEST VIRGINIA PANHANDLE

CITY           SKY/WX    TMP DP  RH WIND       PRES   REMARKS
MARTINSBURG    PTSUNNY   76  39  26 SW9       30.11F
PETERSBURG*    PTSUNNY   77  34  20 E3        30.14S

$$

VAZ036>039-050-031900-
CENTRAL FOOTHILLS

CITY           SKY/WX    TMP DP  RH WIND       PRES   REMARKS
CHARLOTTESVILL PTSUNNY   76  40  27 S5        30.13F
CULPEPER*      NOT AVBL
ORANGE*        CLOUDY    75  45  33 N3        30.16S
GORDONSVILLE*  MOCLDY    77  43  29 S5        30.13F
WARRENTON*     FAIR      82  48  31 SW9       30.12F

$$

VAZ055>057-031900-
NORTH AND CENTRAL PIEDMONT

CITY           SKY/WX    TMP DP  RH WIND       PRES   REMARKS
FREDERICKSBRG* MOSUNNY   80  44  27 W6        30.12S
STAFFORD*      PTSUNNY   76  35  22 W6        30.16S

$$

NCZ024-NYZ072-PAZ021-071-VAZ022-071-031900-
OTHER REGIONAL OBSERVATIONS

CITY           SKY/WX    TMP DP  RH WIND       PRES   REMARKS
NEW YORK CITY  SUNNY     77  35  21 CALM      30.09F
PHILADELPHIA   MOSUNNY   77  38  24 S5        30.09F
PITTSBURGH     PTSUNNY   73  42  32 W12       30.11F
ROANOKE        PTSUNNY   74  36  25 VRB6      30.19F
RICHMOND       MOSUNNY   81  39  22 VRB3      30.14F
RALEIGH        PTSUNNY   77  48  35 VRB3      30.18F

$$

ANZ530>537-031900-
MARINE OBSERVATIONS

STATION/POSITION TIME  TEMP    WIND        PRES
                       AIR SEA DIR/SP/G
                 (UTC) (F)     (DEG/KT/KT) (MB)
THOMAS PT LIGHT  1800   69 58  150/ 11/ 11 1020.0F
BALT KEY BRIDGE  1700   69     110/  9/  9 1019.3F
COVE POINT       1700   65      20/  4/  5 1020.9F
LEWISETTA        1700   73 62              1019.9F
SOLOMONS ISLAND  1700      60                N/A
PINEY POINT      1700          320/  3/  3   N/A

$$



USA.gov is the U.S. government's official web portal to all federal, state and local government web resources and services.